GPS BIIR-07

Last updated on Thu Jun 14 2018 00:19:56 GMT+0000 (Coordinated Universal Time)

1 26690U 01004A 18164.60657028 .00000046 00000-0 00000-0 0 9992 2 26690 53.1178 142.7166 0195662 260.9541 153.6080 2.00702162127275

Satellite not in orbit

GPS BIIR-07